Location: WWIN Observatory
(34.8953°N, 91.9583°W)
Time: 19:50:28
(UTC-05:00)

Daily predictions for brighter satellites

Satellite Brightness Start Highest point End
(mag) Time Altitude Azimuth Time Altitude Azimuth Time Altitude Azimuth
SJ-6B 3.3 20:06:16 10° SE 20:10:05 42° ENE 20:13:51 10° N
Haruka 4.1 19:58:35 10° W 20:11:34 56° SSW 20:15:36 10° ESE
Cosmos 1300 3.7 20:12:55 10° SSW 20:16:38 51° W 20:20:23 10° N
Cosmos 1939 Rocket 4.2 20:13:55 10° ESE 20:16:55 22° ENE 20:19:56 10° NNE
NOSS 3-3 (A) 3.9 20:13:02 10° SSW 20:18:54 71° ESE 20:25:18 10° NE
NOSS 3-3 (C) 3.9 20:13:11 10° SSW 20:19:01 71° ESE 20:25:23 10° NE
NOSS 0 Rocket 4.4 20:14:46 10° S 20:20:21 37° ESE 20:25:58 10° NE
Cosmos 2360 Rocket 4.3 20:20:08 10° WSW 20:25:06 31° WNW 20:30:05 10° N
Cosmos 1980 4.3 20:22:05 10° SSE 20:27:09 35° ESE 20:32:14 10° NE
Cosmos 494 Rocket 4.2 20:22:55 10° NNW 20:28:08 76° WSW 20:33:21 10° S
Cosmos 1666 Rocket 3.8 20:29:13 10° N 20:33:35 52° E 20:37:55 10° SSE
FREGAT/IRIS 4.4 20:33:45 10° SSW 20:36:26 32° W 20:39:08 10° NNW
Cosmos 1408 4.5 20:35:37 10° NE 20:37:36 14° ENE 20:38:11 14° E
Cosmos 2333 Rocket 2.1 20:32:13 10° SSW 20:37:51 74° ESE 20:43:29 10° NNE
ERS-2 2.1 20:35:18 10° SSE 20:38:55 66° ENE 20:42:34 10° N
Resurs 1-3 4.1 20:35:46 11° SE 20:39:39 39° ENE 20:43:45 10° N
Cosmos 1151 Rocket 3.9 20:36:11 10° SSE 20:39:49 28° E 20:43:28 10° NNE
CZ-2D R/B 3.3 20:36:13 10° S 20:40:01 79° W 20:43:50 10° NNW
Cosmos 1455 2.3 20:36:28 10° S 20:40:10 51° E 20:43:54 10° NNE
Meteor 2-21 Rocket 4.4 20:34:58 10° S 20:41:02 69° E 20:47:10 10° NNE
Meteor 1-27 4.3 20:35:36 10° S 20:41:13 57° E 20:46:46 10° NNE
USA 186 1.3 20:40:40 24° SE 20:41:37 40° ENE 20:43:46 10° N
COSMOS 2428 3.5 20:37:26 10° SW 20:43:03 57° WNW 20:48:42 10° NNE
Sich 1 2.9 20:39:19 10° N 20:43:36 77° E 20:47:51 10° S
Cosmos 1844 Rocket 2.7 20:39:09 10° NNW 20:44:51 84° ENE 20:50:30 10° SSE
Envisat 3.2 20:44:24 10° S 20:49:27 72° WSW 20:54:32 10° NNW
Cosmos 1892 2.6 20:47:25 10° N 20:51:19 78° E 20:55:08 10° S
YAOGAN 6 2.5 20:48:33 13° SSE 20:51:37 67° ENE 20:55:13 10° N
Cosmos 1844 3.7 20:46:00 10° NNW 20:51:43 74° ENE 20:56:42 14° SSE
Cosmos 2219 Rocket 2.6 20:46:44 10° SSW 20:52:22 69° WNW 20:58:01 10° NNE
Cosmos 2251 Rocket 3.6 20:47:32 10° NNW 20:52:56 84° WSW 20:58:16 10° SSE
Meteor 2-2 Rocket 4.5 20:47:30 10° SSW 20:53:19 78° W 20:59:17 10° N
Cosmos 2237 Rocket 2.2 20:48:57 10° S 20:54:25 57° ESE 20:59:55 10° NNE
SJ-11-01 4.5 20:53:30 17° SE 20:56:51 51° ENE 21:01:23 10° N
SAR-Lupe-3 4.5 20:55:38 10° NNE 20:59:12 63° ESE 21:02:43 10° S
Cosmos 2056 Rocket 4.3 20:57:10 15° SSE 21:00:52 30° E 21:05:33 10° NE
Genesis I 4.0 20:59:55 10° NNW 21:03:45 39° NE 21:05:02 30° E
Cosmos 1633 Rocket 3.1 21:01:17 10° N 21:05:38 79° W 21:09:49 11° S
Cosmos 2278 Rocket 2.7 21:02:04 10° N 21:07:25 41° ENE 21:09:51 27° ESE
Nadezhda 3 Rocket 4.2 21:01:56 10° N 21:08:15 75° W 21:14:34 10° S
Cosmos 2098 Rocket 3.9 21:07:13 29° ESE 21:08:17 32° E 21:12:00 10° NNE
NOAA 11 4.3 21:05:46 22° SE 21:09:09 55° ENE 21:14:31 10° N
Cosmos 1515 Rocket 3.5 21:08:53 10° S 21:13:19 79° E 21:17:48 10° N
Cosmos 1624 Rocket 4.2 21:13:55 16° S 21:17:48 46° ESE 21:22:45 10° NNE
Cosmos 2228 Rocket 3.0 21:14:02 10° S 21:18:25 89° NW 21:22:50 10° N
Sakura Rocket 3.6 21:16:35 10° WSW 21:20:49 35° S 21:21:08 34° S
ATLAS 2A CENTAUR R/B 4.2 21:03:16 10° SW 21:22:37 44° S 21:27:52 28° ESE
ASTRO E2 3.7 21:23:10 10° SW 21:26:03 31° S 21:26:03 31° S
Cosmos 1825 2.1 21:26:07 10° N 21:29:46 60° ENE 21:29:46 60° ENE
Spot 2 Rocket 3.6 21:29:14 25° S 21:32:17 75° WSW 21:37:23 10° NNW
OAO 2 Rocket 3.6 21:27:29 10° W 21:32:33 53° SSW 21:33:39 44° SSE
ATLAS CENTAUR R/B 3.8 21:31:57 10° WSW 21:34:46 21° NW 21:37:42 10° N
ATLAS 2AS CENTAUR R/B 2.8 21:28:23 10° NNW 21:36:13 88° WSW 21:39:43 34° SSE
Resurs 01 Rocket 2.9 21:39:35 16° SSW 21:42:40 37° W 21:46:47 10° NNW
GEOS 3 Rocket 3.7 21:38:56 10° NE 21:43:44 51° ESE 21:43:44 51° ESE
SL-16 R/B 2.1 21:43:11 46° SSE 21:44:36 59° ESE 21:50:10 10° NNE
Cosmos 2344 3.7 21:40:57 10° S 21:48:17 48° ESE 21:55:44 10° NE
Cosmos 1470 Rocket 4.4 21:44:32 10° NNW 21:48:48 49° W 21:50:30 31° SSW
ARGOS 3.1 21:48:16 57° ESE 21:48:52 61° ENE 21:54:09 10° N
MetOp-B 4.2 21:51:07 55° E 21:51:25 56° ENE 21:56:38 10° N
OAO 3 Copernicus 4.2 21:47:05 10° WSW 21:51:49 66° S 21:51:49 66° S
SL-08 RB Rocket 4.3 21:56:34 44° NE 21:56:34 44° NE 22:00:02 10° N
Cosmos 1869 4.0 21:55:17 44° WSW 21:56:02 51° W 21:59:57 10° N
Cosmos 1727 Rocket 3.9 21:51:05 10° N 21:57:15 70° E 21:58:13 60° SE
Meteor 2-10 Rocket 3.9 22:01:53 33° SSW 22:04:30 73° W 22:10:19 10° N
NOSS 3-4 (A) 4.2 21:59:41 10° NNW 22:06:36 51° NE 22:07:53 46° E
NOSS 3-4 (C) 4.2 21:59:47 10° NNW 22:06:42 50° NE 22:07:59 46° E
ERS-1 Rocket 3.2 22:10:08 58° NNE 22:10:08 58° NNE 22:14:25 10° N
USA 81 4.0 22:08:07 10° N 22:13:03 78° NNE 22:13:03 78° NNE
Cosmos 407 Rocket 3.7 22:10:10 10° NNW 22:14:31 61° NNE 22:14:31 61° NNE
USA 267 3.1 22:09:49 10° NE 22:16:21 75° SE 22:22:53 10° SW
H-2A R/B 2.1 22:17:10 70° N 22:17:10 70° N 22:21:34 10° NNW
Cosmos 2297 3.9 22:14:19 10° NNW 22:19:22 60° NE 22:19:22 60° NE
Cosmos 2369 Rocket 4.3 22:23:14 10° NNE 22:25:18 14° NE 22:25:18 14° NE
CZ-4C R/B 4.3 22:44:41 16° NE 22:44:41 16° NE 22:45:54 10° NE
Terra 3.8 22:48:17 22° NNE 22:48:17 22° NNE 22:50:04 10° N
Cosmos 2278 Rocket 3.9 22:46:49 10° NW 22:51:11 23° W 22:51:44 23° WSW
ATLAS 5 CENTAUR R/B 4.3 22:50:29 10° N 22:54:08 19° NE 22:54:08 19° NE
Lacrosse 5 4.3 23:07:39 10° N 23:09:44 16° NNE 23:09:44 16° NNE
Cosmos 1943 Rocket 4.2 23:34:04 10° N 23:36:08 21° N 23:36:08 21° N
